Weather History for Budapest Ferihegy, Hungary

Change the Weather History Date:

Friday, May 3, 2013

  Actual Average Record
Temperature  
Mean Temperature 68 °F -  
Max Temperature 77 °F 70 °F 86 °F (2002)
Min Temperature 59 °F 48 °F 35 °F (2007)
Cooling Degree Days 3    
Growing Degree Days 18 (Base 50)    
Moisture  
Dew Point 59 °F    
Average Humidity 80    
Maximum Humidity 100    
Minimum Humidity 50    
Precipitation  
Precipitation 0.00 in - - ()
Sea Level Pressure  
Sea Level Pressure 29.86 in    
Wind  
Wind Speed 7 mph ()    
Max Wind Speed 16 mph    
Max Gust Speed -    
Visibility 6.2 miles    
Events Rain , Thunderstorm    
Averages and records for this station are not official NWS values.
T = Trace of Precipitation, MM = Missing Value Source: Averaged Metar Reports

Daily Weather History Graph

Daily Weather History Graph

Search for Another Location

Airport:

Trip Planner

Search our weather history database for the weather conditions in past years. The results will help you decide how hot, cold, wet, or windy it might be!

Date:

Astronomy

May. 03, 2013 Rise Set
Actual Time 5:23 AM CEST 7:57 PM CEST
Civil Twilight 4:48 AM CEST 8:32 PM CEST
Nautical Twilight 4:05 AM CEST 9:15 PM CEST
Astronomical Twilight 3:14 AM CEST 10:06 PM CEST
Moon 2:04 AM CEST (5/3) 1:06 PM CEST (5/3)
Length of Visible Light 15h 43m
Length of Day
14h 34m
Last Quarter, 40% of the Moon is Illuminated
May 3
Last Quarter
May 10
New
May 18
First Quarter
May 25
Full
May 31
Last Quarter

Hourly Weather History & Observations

Time (CEST) Temp. Dew Point Humidity Pressure Visibility Wind Dir Wind Speed Gust Speed Precip Events Conditions
12:00 AM 64.4 °F 60.8 °F 88% 29.86 in - NW 9.2 mph - N/A   Clear
12:30 AM 64.4 °F 60.8 °F 88% 29.89 in - East 4.6 mph - N/A   Clear
1:00 AM 64.4 °F 60.8 °F 88% 29.89 in - East 8.1 mph - N/A   Clear
1:30 AM 64.4 °F 59.0 °F 83% 29.89 in - NE 4.6 mph - N/A   Clear
2:00 AM 62.6 °F 59.0 °F 88% 29.86 in - Variable 3.5 mph - N/A   Clear
2:30 AM 62.6 °F 59.0 °F 88% 29.89 in - East 8.1 mph - N/A   Clear
3:00 AM 62.6 °F 59.0 °F 88% 29.89 in - Variable 3.5 mph - N/A   Clear
3:30 AM 59.0 °F 59.0 °F 100% 29.89 in 6.2 mi SW 4.6 mph - N/A Rain Light Rain
4:00 AM 60.8 °F 60.8 °F 100% 29.89 in 6.2 mi Variable 3.5 mph - N/A Rain Light Rain
4:30 AM 60.8 °F 60.8 °F 100% 29.86 in 6.2 mi Variable 3.5 mph - N/A Rain Light Rain
5:00 AM 59.0 °F 59.0 °F 100% 29.86 in - Variable 2.3 mph - N/A   Clear
5:30 AM 60.8 °F 60.8 °F 100% 29.86 in - ENE 8.1 mph - N/A   Clear
6:00 AM 60.8 °F 60.8 °F 100% 29.86 in - East 8.1 mph - N/A   Clear
6:30 AM 60.8 °F 60.8 °F 100% 29.86 in - East 6.9 mph - N/A   Clear
7:00 AM 62.6 °F 60.8 °F 94% 29.86 in 6.2 mi East 8.1 mph - N/A   Scattered Clouds
7:30 AM 66.2 °F 60.8 °F 83% 29.86 in 6.2 mi East 5.8 mph - N/A   Scattered Clouds
8:00 AM 66.2 °F 59.0 °F 78% 29.86 in 6.2 mi ENE 5.8 mph - N/A   Scattered Clouds
8:30 AM 68.0 °F 60.8 °F 78% 29.86 in 6.2 mi ENE 5.8 mph - N/A   Scattered Clouds
9:00 AM 69.8 °F 60.8 °F 73% 29.86 in 6.2 mi East 4.6 mph - N/A   Scattered Clouds
9:30 AM 71.6 °F 60.8 °F 69% 29.86 in 6.2 mi SE 4.6 mph - N/A   Scattered Clouds
10:00 AM 69.8 °F 60.8 °F 73% 29.86 in 6.2 mi Variable 2.3 mph - N/A   Scattered Clouds
10:30 AM 69.8 °F 60.8 °F 73% 29.86 in 6.2 mi SSE 4.6 mph - N/A   Mostly Cloudy
11:00 AM 73.4 °F 62.6 °F 69% 29.86 in 6.2 mi Variable 3.5 mph - N/A   Scattered Clouds
11:30 AM 73.4 °F 59.0 °F 61% 29.86 in 6.2 mi Variable 3.5 mph - N/A   Scattered Clouds
12:00 PM 75.2 °F 59.0 °F 57% 29.83 in 6.2 mi Variable 8.1 mph - N/A   Scattered Clouds
12:30 PM 77.0 °F 57.2 °F 50% 29.83 in 6.2 mi South 4.6 mph - N/A   Scattered Clouds
1:00 PM 75.2 °F 57.2 °F 53% 29.83 in 6.2 mi Variable 6.9 mph - N/A   Mostly Cloudy
1:30 PM 73.4 °F 59.0 °F 61% 29.83 in 6.2 mi SW 13.8 mph - N/A Rain , Thunderstorm Light Thunderstorms and Rain
2:00 PM 66.2 °F 62.6 °F 88% 29.86 in 6.2 mi SW 11.5 mph - N/A Rain Light Rain Showers
2:30 PM 68.0 °F 64.4 °F 88% 29.86 in 6.2 mi West 10.4 mph - N/A   Scattered Clouds
3:00 PM 69.8 °F 62.6 °F 78% 29.83 in 6.2 mi WNW 13.8 mph - N/A   Scattered Clouds
3:30 PM 69.8 °F 62.6 °F 78% 29.86 in 6.2 mi West 11.5 mph - N/A   Scattered Clouds
4:00 PM 71.6 °F 62.6 °F 73% 29.83 in 6.2 mi West 12.7 mph - N/A   Scattered Clouds
4:30 PM 69.8 °F 60.8 °F 73% 29.83 in 6.2 mi West 11.5 mph - N/A   Scattered Clouds
5:00 PM 71.6 °F 60.8 °F 69% 29.86 in 6.2 mi West 9.2 mph - N/A   Scattered Clouds
5:30 PM 69.8 °F 60.8 °F 73% 29.86 in 6.2 mi West 9.2 mph - N/A   Scattered Clouds
6:00 PM 69.8 °F 60.8 °F 73% 29.86 in 6.2 mi West 9.2 mph - N/A   Scattered Clouds
6:30 PM 69.8 °F 60.8 °F 73% 29.86 in 6.2 mi West 11.5 mph - N/A   Partly Cloudy
7:00 PM 68.0 °F 57.2 °F 68% 29.86 in 6.2 mi West 12.7 mph - N/A   Partly Cloudy
7:30 PM 68.0 °F 55.4 °F 64% 29.86 in - West 10.4 mph - N/A   Clear
8:00 PM 64.4 °F 57.2 °F 77% 29.86 in - West 8.1 mph - N/A   Clear
8:30 PM 64.4 °F 57.2 °F 77% 29.86 in - West 12.7 mph - N/A   Clear
9:00 PM 60.8 °F 55.4 °F 82% 29.86 in - West 9.2 mph - N/A   Clear
9:30 PM 60.8 °F 55.4 °F 82% 29.89 in - WNW 9.2 mph - N/A   Clear
10:00 PM 60.8 °F 55.4 °F 82% 29.89 in - WNW 10.4 mph - N/A   Clear
10:30 PM 59.0 °F 55.4 °F 88% 29.89 in - NW 6.9 mph - N/A   Clear
11:00 PM 59.0 °F 55.4 °F 88% 29.89 in - WNW 12.7 mph - N/A   Clear
11:30 PM 59.0 °F 53.6 °F 82% 29.89 in - WNW 16.1 mph - N/A   Clear